#timestamp,LO_Frequency,Hit,StdDev 
1581166815.3,286046980.9,N
1581166835.1,286046985.0,N
1581166836.0,286046985.0,N
1581166855.8,286046981.4,N
1581166875.7,286046984.8,N
1581166895.5,286046981.5,N
1581166915.3,286046986.5,N
1581166935.2,286046980.5,N
1581166955.0,286046979.1,N
1581166955.9,286046979.1,N
1581166975.8,286046979.2,N
1581166995.6,286046981.8,N
1581167015.4,286046983.1,N
1581167035.3,286046988.3,N
1581167055.1,286046990.2,N
1581167075.9,286046986.0,N
1581167095.7,286046986.8,N
1581167115.5,286046985.6,N
1581167135.4,286046981.0,N
1581167155.2,286046979.9,N
1581167175.4,286046975.8,Y
1581167195.2,286046989.1,P
1581167215.1,286046988.4,P
1581167216.0,286046988.4,P
1581167235.8,286046984.6,Y
1581167255.7,286046995.0,P
1581167275.5,286046995.4,N
1581167295.3,286046994.1,N
1581167315.2,286046997.7,N
1581167335.0,286046998.1,N
1581167335.9,286046998.1,N
1581167355.8,286046995.6,N
1581167375.6,286046993.3,N
1581167395.4,286046995.8,N
1581167415.3,286046996.6,N
1581167435.1,286046995.0,N
1581167455.8,286046998.0,N
1581167475.7,286046999.0,N
1581167495.5,286047002.5,N
1581167515.4,286047000.3,N
1581167535.2,286047002.3,N
1581167555.0,286046999.5,N
1581167556.0,286046999.5,N
1581167575.8,286047001.9,N
1581167595.6,286046996.8,N
1581167615.5,286046993.4,N
1581167635.3,286046992.3,N
1581167655.1,286046994.3,N
1581167675.9,286046996.5,N
1581167695.7,286046998.9,N
1581167715.6,286046997.8,N
1581167735.4,286046995.0,N
1581167755.2,286047001.5,N
1581167775.1,286046999.5,N
1581167776.0,286046999.5,N
1581167795.8,286046994.2,N
1581167815.6,286046992.1,N
1581167835.5,286046991.9,N
1581167855.3,286046990.6,Y
1581167875.2,286046993.6,P
1581167895.9,286046993.3,P
1581167915.7,286046997.2,N
1581167935.6,286047004.1,N
1581167955.4,286047005.6,N
1581167975.2,286047003.4,N
1581167995.1,286047003.9,N
1581167996.0,286047003.9,N
1581168015.8,286047003.3,N
1581168035.7,286047008.3,N
1581168055.5,286047012.1,N
1581168075.3,286047007.3,N
1581168095.2,286047009.5,N
1581168115.0,286047011.0,N
1581168115.9,286047011.0,N
1581168135.8,286047012.8,N
1581168155.6,286047020.0,Y
1581168175.4,286047015.0,P
1581168195.3,286047013.9,N
1581168215.1,286047015.1,P
1581168235.9,286047017.0,Y
1581168255.7,286047004.1,P
1581168275.5,286047001.6,N
1581168295.4,286047005.6,N
1581168315.2,286047002.9,N
1581168335.0,286047003.1,N
1581168335.9,286047003.1,N
1581168355.8,286047003.6,N
1581168375.6,286047003.5,N
1581168395.5,286047002.3,N
1581168415.3,286047000.1,N
1581168435.1,286046999.3,N
1581168455.9,286046999.6,N
1581168475.7,286046995.8,N
1581168495.5,286046993.1,N
1581168515.4,286046994.5,N
1581168535.2,286046993.8,N
1581168555.1,286046993.5,N
1581168556.0,286046993.5,N
1581168575.8,286046995.4,N
1581168595.6,286046999.5,N
1581168615.5,286047002.5,N
1581168635.3,286047006.0,N
1581168655.1,286047001.8,N
1581168675.9,286047000.7,N
1581168695.7,286047002.5,N
1581168715.6,286047001.3,N
1581168735.4,286047001.5,N
1581168755.2,286047003.5,N
1581168775.1,286047005.5,N
1581168776.0,286047005.5,N
1581168795.8,286047004.5,N
1581168815.7,286047005.4,N
1581168835.5,286047003.4,N
1581168855.3,286047005.4,N
1581168875.2,286047006.8,N
1581168895.0,286047008.5,N
1581168895.9,286047008.5,N
1581168915.8,286047010.1,N
1581168935.6,286047009.8,N
1581168955.4,286047007.9,N
1581168975.3,286047010.1,N
1581168995.1,286047008.9,N
1581169015.8,286047006.6,N
1581169035.7,286047006.2,N
1581169055.5,286047009.8,N
1581169075.4,286047008.1,N
1581169095.2,286047006.6,N
1581169115.0,286047005.0,N
1581169115.9,286047005.0,N
1581169135.8,286047008.9,Y
1581169155.6,286047005.5,P
1581169175.5,286047008.8,P
1581169195.3,286047009.2,P
1581169215.1,286047006.7,Y
1581169235.9,286046998.6,P
1581169255.7,286047000.3,N
1581169275.5,286047002.0,N
1581169295.4,286047002.4,N
1581169315.2,286047000.1,N
1581169335.1,286046997.5,N
1581169336.0,286046997.5,N
1581169355.8,286046999.1,N
1581169375.6,286046997.4,N
1581169395.5,286046997.6,N
1581169415.3,286046999.4,N
1581169435.1,286046995.5,N
1581169455.9,286046995.9,N
1581169475.7,286046995.5,N
1581169495.6,286046992.3,N
1581169515.4,286046990.4,N
1581169535.2,286046987.7,Y
1581169555.1,286046988.0,P
1581169556.0,286046988.0,N
1581169575.8,286046985.9,N
1581169595.7,286046983.2,Y
1581169615.5,286046994.6,P
1581169635.3,286046990.3,P
1581169655.2,286046992.8,P
1581169675.0,286046991.1,Y
1581169675.9,286046991.1,P
1581169695.8,286047000.4,N
1581169715.6,286047000.3,N
1581169735.4,286047000.1,N
1581169755.3,286047001.4,N
1581169775.1,286047002.9,N
1581169795.8,286047002.2,N
1581169815.7,286047001.3,N
1581169835.5,286047001.5,N
1581169855.4,286046998.5,N
1581169875.2,286046998.3,N
1581169895.0,286047004.2,N
1581169895.9,286047004.2,N
1581169915.8,286046998.8,N
1581169935.6,286046999.0,N
1581169955.5,286047000.7,N
1581169975.3,286046996.2,N
1581169995.1,286046995.8,N
1581170015.9,286046997.2,N
1581170035.7,286047000.9,N
1581170055.5,286046999.9,N
1581170075.4,286047001.7,N
1581170095.2,286047002.8,N
1581170115.1,286046999.0,N
1581170116.0,286046999.0,N
1581170135.8,286046997.1,N
1581170155.6,286046995.9,N
1581170175.5,286046995.4,N
1581170195.3,286046991.7,N
1581170215.2,286046997.9,N
1581170235.9,286046998.5,N
1581170255.7,286047002.5,N
1581170275.6,286047001.5,N
1581170295.4,286047003.0,N
1581170315.2,286047007.2,N
1581170335.1,286047006.3,N
1581170336.0,286047006.3,N
1581170355.8,286047008.4,N
1581170375.7,286047010.6,N
1581170395.5,286047012.5,N
